Regional Weather Roundup
Issued by NWS Cleveland, OH

Home | Current Version | Previous Version | Text Only | Print | Product List | Glossary Off
Versions: 1 2 3 4 5 6 7 8 9 10 11 12 13 14 15 16 17 18 19 20 21 22 23 24 25 26 27 28 29 30 31 32 33 34 35 36 37 38 39 40 41 42 43 44 45 46 47 48 49 50

000
ASUS41 KCLE 280802
RWRCLE
OHIO REGIONAL WEATHER ROUNDUP
NATIONAL WEATHER SERVICE CLEVELAND, OH
400 AM EDT FRI AUG 28 2015

NOTE: "FAIR" INDICATES FEW OR NO CLOUDS BELOW 12,000 FEET WITH NO
SIGNIFICANT WEATHER AND/OR OBSTRUCTIONS TO VISIBILITY.

OHZ001>008-015>018-024>027-034-035-043-044-280900-
   NORTHWEST OHIO

CITY           SKY/WX    TMP DP  RH WIND       PRES   REMARKS
DEFIANCE       CLEAR     54  51  90 CALM      30.18R FOG
FINDLAY        CLEAR     57  54  89 CALM      30.17R
TOLEDO EXPRESS CLEAR     52  52 100 CALM      30.17R
TOLEDO EXEC    CLEAR     56  52  86 CALM      30.18R
LIMA           CLEAR     54  53  97 E3        30.17R FOG
$$

OHZ009>014-019>023-028>033-038-089-280900-
   NORTHEAST OHIO

CITY           SKY/WX    TMP DP  RH WIND       PRES   REMARKS
CLE-HOPKINS    CLEAR     54  51  90 CALM      30.19S
CLE-LAKEFRONT  CLEAR     59  54  83 S9        30.16S
CUY CO. ARPT   NOT AVBL
LORAIN-ELYRIA  FOG       51  50  96 CALM      30.18R VSB 1/2
ASHTABULA      CLEAR     49  48  97 CALM      30.18S FOG
AKRON-CANTON   CLEAR     55  51  86 E3        30.17F
WOOSTER        CLEAR     48  46  93 CALM      30.19R
MANSFIELD      CLEAR     54  54 100 SE6       30.18S
YOUNGSTOWN     CLEAR     51  50  96 CALM      30.18S
$$

OHZ042-051>053-060>062-070>072-077>081-280900-
  SOUTHWEST OHIO

CITY           SKY/WX    TMP DP  RH WIND       PRES   REMARKS
CINC-COVINGTON PTCLDY    58  55  90 CALM      30.14S
CINC-LUNKEN    PTCLDY    54  54 100 CALM      30.16R FOG
HAMILTON       CLEAR     52  51  97 CALM      30.16S
DAYTON         CLEAR     57  55  93 CALM      30.17R
WRIGHT-PAT AFB CLEAR     56  54  94 CALM      30.16R
DAYTON GENERAL CLEAR     57  54  89 NE5       30.15R
WILMINGTON     CLEAR     52  50  93 CALM      30.15S
$$

OHZ036-037-039>041-045>050-054>059-063>069-073>076-082>088-280900-
  CENTRAL AND SOUTHEAST OHIO

CITY           SKY/WX    TMP DP  RH WIND       PRES   REMARKS
COLUMBUS       CLEAR     58  55  90 CALM      30.16R
OSU AIRPORT    CLEAR     58  55  90 E3        30.16S
BOLTON FIELD   NOT AVBL
RICKENBACK AFB NOT AVBL
NEWARK         CLEAR     53  51  93 CALM      30.16S FOG
MARION         CLEAR     53  52  96 CALM      30.17S FOG
LANCASTER      FOG       49  48  97 CALM      30.17R VSB 1/2
ZANESVILLE     CLEAR     56  52  86 CALM      30.16S
NEW PHILLY     CLEAR     51  51 100 CALM      30.18R
$$


USA.gov is the U.S. government's official web portal to all federal, state and local government web resources and services.